Volver al catálogo

ONEWEB-0516

ActivoComunicacionesPO
NORAD 54134·PAYLOAD·🇬🇧 United Kingdom

Lanzado Oct 22, 2022 desde Satish Dhawan Space Centre

Loading…

Próximos Pases (próximas 24 horas)

TLE

ActualizadoSource: CelesTrak SupGP

Época: Sep 14, 2026, 15:14 UTC

1 54134C 22138X   26257.63491157 -.00000262  00000+0 -65424-3 0  2573
2 54134  87.9109 287.1526 0001866  90.1135  23.3824 13.19728587    18

Sigue ONEWEB-0516 en tiempo real con AllMySat

Download on the App Store